HORIZONS-3E

Last updated on Sun Apr 12 2026 00:02:55 GMT+0000 (Coordinated Universal Time)

1 43633U 18074B 26101.29072530 -.00000029 00000+0 00000+0 0 9997 2 43633 0.0148 35.6197 0000688 296.1646 141.3946 1.00271944 27679
UTC large
Height (km)
Speed (km/s)
/
Latitude / Longitude
Inclination (degrees)
Orbital Period (minutes)
Azimuth
Elevation
Range (km)
Doppler Factor

Next 0 passes for location: London (51.5072 / 0.1276)

Sorry there are no passes over London.
HORIZONS-3E